[[{"header":{"parameterUnit":"m.s-1","parameterCategory":1,"la1":30.2991,"la2":30.254,"lo1":-89.0895,"lo2":-89.0444,"dy":0.0017,"dx":0.0017,"nx":28,"ny":28,"refTime":"2025-01-02T03:00:00:Z","depth":0,"parameterNumber":2,"parameterNumberName":"U-component_of_WINDS"},"data":[0,0,0,0,0,0,0,0,0,0,0,0,0,0,0,0,0,0,0,0,0,0,0,0,0,0,0,0,0,0,0,0,0,0,0,0,0,0,0,0,0,0,0,0,0,0,0,0,0,0,0,0,0,0,0,0,0,0,-1.212,-1.212,0,-1.2118,-1.2118,-1.2118,-1.2043,-1.2041,-1.2039,-1.2037,-1.2039,-1.2041,-1.2043,0,0,0,0,0,0,0,0,0,0,0,0,0,-1.2063,-1.2064,-1.212,-1.212,-1.212,-1.2118,-1.2118,-1.2118,-1.2043,-1.2041,-1.2038,-1.2036,-1.2038,-1.204,-1.2043,0,0,0,0,0,0,0,0,0,0,0,0,0,-1.2077,-1.2065,-1.212,-1.2082,-1.2079,-1.2118,-1.2118,-1.2118,-1.2044,-1.2041,-1.2038,-1.2035,-1.2038,-1.204,-1.2043,-1.2119,0,0,-1.2052,-1.2053,0,0,0,0,0,0,0,0,-1.2076,-1.2079,-1.2088,-1.2085,-1.2081,-1.2077,-1.2098,-1.2118,-1.2044,-1.2057,-1.2037,-1.2034,-1.2054,-1.2056,-1.2062,-1.2119,-1.2119,-1.2052,-1.2054,-1.2055,-1.2056,0,0,0,0,0,0,0,-1.2075,-1.2079,-1.2119,-1.2088,-1.2084,-1.2067,-1.2065,-1.2102,-1.2072,-1.2056,-1.205,-1.2051,-1.2052,-1.2059,-1.2061,-1.2119,-1.2052,-1.2054,-1.2056,-1.2057,-1.2239,-1.2242,0,0,0,0,0,0,-1.2079,-1.2078,-1.2119,-1.2119,-1.2071,-1.207,-1.2069,-1.2082,-1.2072,-1.2067,-1.2053,-1.2047,-1.2056,-1.2058,-1.2061,-1.215,-1.2055,-1.2057,-1.2059,-1.2236,-1.2239,-1.2243,0,0,0,0,0,0,-1.2078,-1.2083,-1.2119,-1.2097,-1.21,-1.2074,-1.2089,-1.2083,-1.209,-1.207,-1.2065,-1.2066,-1.2054,-1.2057,-1.2105,-1.2149,-1.2059,-1.2061,-1.2232,-1.2237,-1.2241,-1.2328,0,0,0,0,0,0,-1.2077,-1.2083,-1.2111,-1.2098,-1.2102,-1.2163,-1.2092,-1.2085,-1.2095,-1.2087,-1.208,-1.2076,-1.2052,-1.2101,-1.2108,-1.2151,-1.2063,-1.2228,-1.2234,-1.224,-1.2321,-1.2335,-1.2347,0,0,0,0,0,-1.2075,-1.2137,-1.2113,-1.2118,-1.2136,-1.2165,-1.2167,-1.2136,-1.2099,-1.2127,-1.2114,-1.2077,-1.2142,-1.2107,-1.2113,-1.2158,-1.2225,-1.2232,-1.2239,-1.2315,-1.2332,-1.2347,0,0,0,0,0,0,-1.2157,-1.2134,-1.2108,-1.2167,-1.2168,-1.2152,-1.2187,-1.2155,-1.2169,-1.2161,-1.2123,-1.2122,-1.2176,-1.2172,-1.2132,-1.2231,-1.2177,-1.2186,-1.2233,-1.2249,-1.2262,-1.2263,-1.2066,0,0,0,0,0,-1.2182,-1.2206,-1.2185,-1.224,-1.2241,-1.2214,-1.2226,-1.2202,-1.2202,-1.2203,-1.2193,-1.2196,-1.2217,-1.2232,-1.2251,-1.2319,-1.2317,-1.2353,-1.2366,-1.2377,-1.2386,-1.2423,-1.2439,-1.2266,-1.2266,-1.2266,0,0,-1.2234,-1.2224,-1.2242,-1.2256,-1.2254,-1.2281,-1.2216,-1.2247,-1.2268,-1.2208,-1.2253,-1.2246,-1.2246,-1.2305,-1.233,-1.2303,-1.2433,-1.2386,-1.2395,-1.2398,-1.2432,-1.2448,-1.2463,-1.2271,-1.227,-1.2269,0,0,-1.2343,-1.2337,-1.2382,-1.2381,-1.2379,-1.236,-1.2371,-1.236,-1.2352,-1.2396,-1.2352,-1.2376,-1.2413,-1.2416,-1.2422,-1.2531,-1.2498,-1.2538,-1.2606,-1.2643,-1.2656,-1.2668,-1.2709,-1.2723,-1.2546,-1.2546,-1.2546,0,-1.2408,-1.2447,-1.241,-1.2444,-1.2452,-1.2397,-1.2443,-1.2445,-1.2449,-1.2456,-1.2425,-1.247,-1.2467,-1.2526,-1.2552,-1.2558,-1.2571,-1.2539,-1.2657,-1.2669,-1.2679,-1.2717,-1.2732,-1.2551,-1.2551,-1.255,-1.255,0,-1.2528,-1.2555,-1.2592,-1.2596,-1.2608,-1.2648,-1.2618,-1.2634,-1.2609,-1.2594,-1.264,-1.2633,-1.265,-1.2661,-1.2637,-1.2717,-1.27,-1.2663,-1.2609,-1.2701,-1.2737,-1.2751,-1.2558,-1.2557,-1.2555,-1.2554,0,0,-1.2691,-1.2673,-1.2687,-1.2689,-1.2681,-1.2703,-1.274,-1.2755,-1.277,-1.2774,-1.2806,-1.2838,-1.2804,-1.2811,-1.2787,-1.2818,-1.2906,-1.2778,-1.2777,-1.2803,-1.2995,-1.3025,-1.3042,-1.2883,-1.2886,-1.2888,-1.2996,0,-1.2798,-1.286,-1.2828,-1.2896,-1.2921,-1.2869,-1.2902,-1.2901,-1.2888,-1.2909,-1.2894,-1.2918,-1.287,-1.2874,-1.2903,-1.289,-1.2945,-1.2881,-1.2914,-1.2916,-1.2918,-1.306,-1.3091,-1.3194,-1.3009,-1.3011,-1.3013,0,-1.2931,-1.294,-1.301,-1.2998,-1.3007,-1.3037,-1.3048,-1.3068,-1.3066,-1.3054,-1.3062,-1.303,-1.3067,-1.3011,-1.3062,-1.302,-1.3031,-1.3026,-1.3029,-1.3033,-1.2972,-1.307,-1.3225,-1.3242,-1.3034,-1.3032,-1.3031,0,-1.3045,-1.3075,-1.312,-1.3123,-1.3109,-1.3132,-1.3128,-1.3123,-1.3134,-1.3143,-1.315,-1.3164,-1.3173,-1.3185,-1.3158,-1.3119,-1.3214,-1.3155,-1.3206,-1.3207,-1.3231,-1.323,-1.3393,-1.3235,-1.3234,-1.3234,-1.3234,0,-1.3169,-1.3215,-1.3171,-1.32,-1.3249,-1.3211,-1.3261,-1.3251,-1.3248,-1.3274,-1.3229,-1.3255,-1.3216,-1.3239,-1.3218,-1.3264,-1.3268,-1.3261,-1.3255,-1.3266,-1.3267,-1.3275,-1.3268,-1.3238,-1.3237,-1.3236,-1.3236,0,-1.3306,-1.3279,-1.3325,-1.3308,-1.3305,-1.3342,-1.3328,-1.3354,-1.3336,-1.3371,-1.3376,-1.335,-1.3374,-1.3347,-1.3369,-1.3355,-1.3419,-1.3401,-1.3419,-1.3415,-1.3468,-1.3465,-1.3643,-1.3665,-1.3492,-1.3493,-1.3495,0,-1.3388,-1.3422,-1.3408,-1.3421,-1.3419,-1.3442,-1.3453,-1.3416,-1.3429,-1.343,-1.3456,-1.3476,-1.349,-1.3531,-1.3514,-1.3531,-1.3515,-1.3576,-1.3518,-1.3528,-1.3518,-1.3518,-1.3521,-1.3589,-1.3591,-1.3593,-1.3594,0,-1.3538,-1.3522,-1.3538,-1.355,-1.3563,-1.3571,-1.3575,-1.3589,-1.3551,-1.3568,-1.3591,-1.3602,-1.3624,-1.3645,-1.3656,-1.3653,-1.3619,-1.3613,-1.3626,-1.3639,-1.3648,-1.3646,-1.3454,-1.3609,-1.3608,-1.3607,-1.3606,-1.3605,-1.3651,-1.3678,-1.3673,-1.3692,-1.3691,-1.3696,-1.372,-1.3705,-1.3723,-1.3737,-1.3714,-1.3744,-1.3741,-1.3753,-1.3754,-1.3777,-1.3751,-1.377,-1.3775,-1.378,-1.3789,-1.3642,-1.3779,-1.3778,-1.3778,-1.3777,-1.3777,0,-1.3799,-1.3793,-1.3811,-1.3818,-1.3833,-1.3797,-1.3799,-1.3815,-1.3841,-1.3841,-1.3855,-1.3882,-1.3902,-1.3886,-1.3903,-1.3925,-1.3909,-1.393,-1.393,-1.393,-1.3811,-1.3799,-1.3942,-1.3942,-1.3942,-1.3942,-1.3942,-1.3942,-1.3879,-1.3924,-1.3907,-1.3951,-1.3944,-1.3972,-1.3977,-1.3981,-1.3981,-1.4013,-1.4028,-1.4017,-1.4011,-1.4026,-1.4043,-1.4038,-1.4047,-1.4074,-1.4064,-1.3954,-1.3938,-1.3922,-1.3911,-1.4076,-1.4076,-1.4181,-1.4182,-1.4183]},{"header":{"parameterUnit":"m.s-1","parameterCategory":1,"la1":30.2991,"la2":30.254,"lo1":-89.0895,"lo2":-89.0444,"dy":0.0017,"dx":0.0017,"nx":28,"ny":28,"refTime":"2025-01-02T03:00:00:Z","depth":0,"parameterNumber":3,"parameterNumberName":"V-component_of_WINDS"},"data":[0,0,0,0,0,0,0,0,0,0,0,0,0,0,0,0,0,0,0,0,0,0,0,0,0,0,0,0,0,0,0,0,0,0,0,0,0,0,0,0,0,0,0,0,0,0,0,0,0,0,0,0,0,0,0,0,0,0,-4.3111,-4.3111,0,-4.3196,-4.3197,-4.3198,-4.3126,-4.3123,-4.312,-4.3117,-4.3204,-4.3209,-4.3214,0,0,0,0,0,0,0,0,0,0,0,0,0,-4.2885,-4.2889,-4.311,-4.3112,-4.3113,-4.3196,-4.3197,-4.3198,-4.3126,-4.3123,-4.3119,-4.3116,-4.3203,-4.3209,-4.3215,0,0,0,0,0,0,0,0,0,0,0,0,0,-4.2978,-4.2891,-4.311,-4.3087,-4.3085,-4.3196,-4.3197,-4.3199,-4.3127,-4.3123,-4.3118,-4.3114,-4.3201,-4.3208,-4.3216,-4.3354,0,0,-4.3239,-4.3243,0,0,0,0,0,0,0,0,-4.2973,-4.2986,-4.3089,-4.3089,-4.3087,-4.3146,-4.315,-4.3251,-4.3128,-4.3111,-4.3117,-4.3112,-4.3188,-4.3197,-4.3223,-4.3358,-4.3361,-4.324,-4.3245,-4.3248,-4.325,0,0,0,0,0,0,0,-4.2966,-4.2982,-4.3144,-4.3091,-4.309,-4.3072,-4.308,-4.3168,-4.3174,-4.3112,-4.3107,-4.3119,-4.3187,-4.3216,-4.3224,-4.3363,-4.324,-4.3247,-4.3251,-4.3254,-4.3616,-4.3621,0,0,0,0,0,0,-4.2962,-4.2977,-4.3142,-4.3147,-4.3018,-4.308,-4.3089,-4.3132,-4.3173,-4.3175,-4.3122,-4.3115,-4.3205,-4.3215,-4.3227,-4.3392,-4.3248,-4.3255,-4.3259,-4.3612,-4.3618,-4.3623,0,0,0,0,0,0,-4.2958,-4.2978,-4.3138,-4.3061,-4.308,-4.3089,-4.3137,-4.3136,-4.3164,-4.3181,-4.3181,-4.315,-4.3202,-4.3216,-4.3323,-4.3394,-4.3259,-4.3266,-4.3606,-4.3613,-4.362,-4.3723,0,0,0,0,0,0,-4.2952,-4.2977,-4.3029,-4.3063,-4.3084,-4.3233,-4.3141,-4.3141,-4.3178,-4.3169,-4.3207,-4.3209,-4.3199,-4.3312,-4.3331,-4.3402,-4.3272,-4.3599,-4.3609,-4.3618,-4.3714,-4.3733,-4.375,0,0,0,0,0,-4.2944,-4.3054,-4.3032,-4.3052,-4.315,-4.3237,-4.325,-4.3236,-4.3184,-4.3236,-4.3247,-4.3208,-4.3384,-4.3324,-4.3344,-4.3419,-4.3595,-4.3606,-4.3617,-4.3705,-4.3729,-4.375,0,0,0,0,0,0,-4.3028,-4.3058,-4.3034,-4.3158,-4.3196,-4.3225,-4.3291,-4.3262,-4.3315,-4.3304,-4.3285,-4.3294,-4.3407,-4.3424,-4.3356,-4.3555,-4.3481,-4.3497,-4.3541,-4.3564,-4.3582,-4.3576,-4.3278,0,0,0,0,0,-4.3061,-4.3129,-4.3152,-4.3259,-4.3279,-4.3282,-4.332,-4.3306,-4.3344,-4.336,-4.3378,-4.3417,-4.348,-4.3523,-4.3582,-4.3716,-4.3723,-4.3777,-4.3796,-4.3811,-4.3825,-4.3898,-4.3922,-4.366,-4.366,-4.366,0,0,-4.313,-4.3155,-4.3199,-4.3277,-4.3304,-4.3376,-4.3296,-4.3375,-4.3428,-4.3371,-4.3474,-4.3489,-4.3531,-4.3652,-4.3706,-4.3669,-4.3899,-4.3825,-4.3837,-4.3843,-4.3912,-4.3937,-4.3959,-4.3668,-4.3666,-4.3665,0,0,-4.3292,-4.3317,-4.341,-4.344,-4.3483,-4.3484,-4.3507,-4.3541,-4.3549,-4.3651,-4.3611,-4.3674,-4.3784,-4.3816,-4.3846,-4.4022,-4.3988,-4.4042,-4.4138,-4.421,-4.423,-4.4249,-4.4312,-4.4335,-4.4056,-4.4056,-4.4057,0,-4.3372,-4.3478,-4.3462,-4.3544,-4.358,-4.3533,-4.3628,-4.3657,-4.3717,-4.3743,-4.3701,-4.3839,-4.3864,-4.3992,-4.4035,-4.4061,-4.4087,-4.4038,-4.4229,-4.4247,-4.4264,-4.4324,-4.4348,-4.4063,-4.4062,-4.4061,-4.4061,0,-4.3575,-4.3649,-4.3719,-4.378,-4.3823,-4.3911,-4.3909,-4.3955,-4.3938,-4.3944,-4.405,-4.4078,-4.4143,-4.4172,-4.4156,-4.4299,-4.4275,-4.4231,-4.4156,-4.4295,-4.4352,-4.4375,-4.4072,-4.4069,-4.4068,-4.4066,0,0,-4.3792,-4.3843,-4.3869,-4.3896,-4.3941,-4.3998,-4.4084,-4.4148,-4.4189,-4.4232,-4.4305,-4.44,-4.436,-4.4395,-4.4382,-4.4445,-4.4584,-4.4393,-4.4394,-4.4428,-4.4744,-4.4777,-4.4804,-4.4561,-4.4566,-4.4569,-4.4741,0,-4.3956,-4.4107,-4.4095,-4.4237,-4.4306,-4.4263,-4.4339,-4.4374,-4.4383,-4.4443,-4.4451,-4.452,-4.4461,-4.4482,-4.4542,-4.4554,-4.4647,-4.4541,-4.4629,-4.4632,-4.4621,-4.4834,-4.4869,-4.5029,-4.4763,-4.4766,-4.4769,0,-4.4168,-4.422,-4.4369,-4.4405,-4.4433,-4.4501,-4.456,-4.4618,-4.4658,-4.4659,-4.4699,-4.4676,-4.4764,-4.4686,-4.4807,-4.4736,-4.4771,-4.4782,-4.4788,-4.4796,-4.471,-4.4848,-4.508,-4.5105,-4.4804,-4.4801,-4.4798,0,-4.4313,-4.442,-4.4523,-4.4548,-4.4591,-4.464,-4.4661,-4.4697,-4.4736,-4.4788,-4.4813,-4.4874,-4.4908,-4.4955,-4.4949,-4.4893,-4.5073,-4.4994,-4.5077,-4.5078,-4.5117,-4.5115,-4.5359,-4.5139,-4.5139,-4.5138,-4.5138,0,-4.4498,-4.4591,-4.4589,-4.4652,-4.4756,-4.4742,-4.4845,-4.486,-4.4892,-4.4958,-4.4925,-4.4988,-4.4976,-4.5039,-4.5035,-4.5136,-4.5151,-4.5155,-4.5153,-4.5159,-4.5159,-4.5182,-4.5171,-4.5144,-4.5143,-4.5142,-4.5141,0,-4.4677,-4.4679,-4.4789,-4.4822,-4.4832,-4.4907,-4.4936,-4.4996,-4.5002,-4.5086,-4.5105,-4.5114,-4.5187,-4.5186,-4.5268,-4.5265,-4.539,-4.5375,-4.5377,-4.5374,-4.5457,-4.545,-4.5725,-4.5761,-4.5517,-4.552,-4.5522,0,-4.4795,-4.4866,-4.4907,-4.4949,-4.4973,-4.5041,-4.5082,-4.5072,-4.5116,-4.5167,-4.5222,-4.5292,-4.5347,-4.5464,-4.5479,-4.5542,-4.5528,-4.562,-4.5537,-4.5541,-4.5531,-4.5527,-4.5535,-4.5637,-4.5639,-4.5642,-4.5643,0,-4.5006,-4.5004,-4.5064,-4.5125,-4.5175,-4.5223,-4.5266,-4.5303,-4.5297,-4.5348,-4.5422,-4.5465,-4.555,-4.562,-4.5681,-4.5702,-4.5673,-4.567,-4.5692,-4.5699,-4.5698,-4.5701,-4.5422,-4.5663,-4.5661,-4.566,-4.5659,-4.5658,-4.5159,-4.522,-4.5259,-4.5328,-4.536,-4.5402,-4.5461,-4.5475,-4.5536,-4.5605,-4.5595,-4.5678,-4.5717,-4.5796,-4.5823,-4.5888,-4.5856,-4.5888,-4.5896,-4.5905,-4.5915,-4.5687,-4.5899,-4.5898,-4.5898,-4.5897,-4.5897,0,-4.5368,-4.5391,-4.5455,-4.5518,-4.5572,-4.554,-4.5587,-4.5635,-4.5708,-4.5748,-4.5803,-4.5889,-4.5957,-4.5977,-4.6042,-4.6091,-4.6079,-4.6108,-4.6105,-4.6111,-4.5939,-4.5914,-4.6117,-4.6117,-4.6117,-4.6117,-4.6117,-4.6117,-4.5484,-4.5587,-4.5589,-4.5708,-4.5731,-4.5812,-4.5842,-4.5881,-4.5913,-4.601,-4.6067,-4.6079,-4.6111,-4.6179,-4.624,-4.6244,-4.6271,-4.6306,-4.6305,-4.6144,-4.6122,-4.6101,-4.6077,-4.6311,-4.6312,-4.6471,-4.6472,-4.6473]}]]